Location: Azul
(36.7830°S, 59.8500°W)
Time: 18:02:39
(UTC-03:00)

AIST 2D - Pass Details

Date: 23 October 2021
Orbit: 445 x 462 km, 97.1° (Epoch: 06 December)

Event Time Altitude Azimuth Distance (km) Brightness Sun altitude
Exits shadow 21:51:38 14° 169° (SSE) 1,355 ? -26.8°
Drops below altitude 10° 21:52:17 10° 174° (S) 1,607 ? -26.9°
Sets 21:54:25 0° 182° (S) 2,487 ? -27.2°
